Weather History for KFDY - April, 2013

Change the Weather History Date:

Saturday, April 20, 2013

  Actual Average Record
Temperature  
Mean Temperature 38 °F -  
Max Temperature 45 °F 64 °F 83 °F (1987)
Min Temperature 32 °F 43 °F 26 °F (1956)
Degree Days  
Heating Degree Days 26    
Moisture  
Dew Point 26 °F    
Average Humidity 65    
Maximum Humidity 87    
Minimum Humidity 42    
Precipitation  
Precipitation 0.01 in - - ()
Sea Level Pressure  
Sea Level Pressure 30.13 in    
Wind  
Wind Speed 16 mph (West)    
Max Wind Speed 22 mph    
Max Gust Speed 29 mph    
Visibility 9 miles    
Events Snow    
Averages and records for this station are not official NWS values.
T = Trace of Precipitation, MM = Missing Value Source: NWS Daily Summary

Daily Weather History Graph

Daily Weather History Graph

Search for Another Location

Airport or City:

Trip Planner

Search our weather history database for the weather conditions in past years. The results will help you decide how hot, cold, wet, or windy it might be!

Date:

Astronomy

Apr. 20, 2013 Rise Set
Actual Time 6:47 AM EDT 8:20 PM EDT
Civil Twilight 6:18 AM EDT 8:49 PM EDT
Nautical Twilight 5:43 AM EDT 9:24 PM EDT
Astronomical Twilight 5:06 AM EDT 10:01 PM EDT
Moon 3:00 PM EDT (4/20) 3:39 AM EDT (4/20)
Length of Visible Light 14h 30m
Length of Day
13h 32m
Waxing Gibbous, 71% of the Moon is Illuminated
Apr 20
Waxing Gibbous
Apr 25
Full
May 2
Last Quarter
May 9
New
May 18
First Quarter

Hourly Weather History & Observations

Time (EDT) Temp. Windchill Dew Point Humidity Pressure Visibility Wind Dir Wind Speed Gust Speed Precip Events Conditions
12:53 AM 36.0 °F 25.3 °F 30.0 °F 79% 29.88 in 10.0 mi WSW 19.6 mph 26.5 mph N/A   Scattered Clouds
1:53 AM 36.0 °F 26.3 °F 28.9 °F 76% 29.89 in 10.0 mi WSW 16.1 mph 28.8 mph N/A   Mostly Cloudy
2:53 AM 35.1 °F 23.8 °F 30.9 °F 85% 29.91 in 10.0 mi WSW 20.7 mph 25.3 mph N/A   Overcast
3:53 AM 34.0 °F 24.2 °F 28.9 °F 82% 29.92 in 10.0 mi WSW 15.0 mph - N/A   Mostly Cloudy
4:14 AM 35.6 °F 25.2 °F 28.4 °F 75% 29.92 in 10.0 mi WSW 18.4 mph 26.5 mph N/A   Mostly Cloudy
4:25 AM 35.6 °F 25.5 °F 28.4 °F 75% 29.92 in 10.0 mi WSW 17.3 mph 27.6 mph N/A   Overcast
4:53 AM 34.0 °F 23.8 °F 28.9 °F 82% 29.95 in 10.0 mi WSW 16.1 mph - 0.00 in   Mostly Cloudy
5:53 AM 33.1 °F 23.4 °F 28.0 °F 82% 29.97 in 10.0 mi WSW 13.8 mph - N/A   Partly Cloudy
6:53 AM 33.1 °F 23.0 °F 28.0 °F 82% 30.00 in 10.0 mi West 15.0 mph - N/A   Clear
7:18 AM 33.8 °F 21.9 °F 28.4 °F 81% 30.02 in 1.2 mi WNW 21.9 mph 28.8 mph 0.00 in Snow Light Snow
7:20 AM 33.8 °F 23.2 °F 28.4 °F 81% 30.02 in 0.8 mi WNW 17.3 mph 28.8 mph 0.01 in Snow Light Snow
7:29 AM 32.0 °F 23.0 °F 28.4 °F 87% 30.03 in 2.5 mi West 11.5 mph - 0.01 in Snow Light Snow
7:31 AM 32.0 °F 22.5 °F 28.4 °F 87% 30.03 in 5.0 mi West 12.7 mph - 0.01 in Snow Light Snow
7:53 AM 32.0 °F 24.2 °F 28.0 °F 85% 30.05 in 8.0 mi West 9.2 mph - 0.01 in Snow Light Snow
8:53 AM 36.0 °F 28.0 °F 26.1 °F 67% 30.09 in 10.0 mi West 11.5 mph 20.7 mph 0.00 in   Scattered Clouds
9:53 AM 37.0 °F 27.0 °F 24.1 °F 59% 30.12 in 10.0 mi West 18.4 mph 25.3 mph N/A   Mostly Cloudy
10:53 AM 39.0 °F 29.3 °F 24.1 °F 55% 30.15 in 10.0 mi West 19.6 mph 26.5 mph N/A   Mostly Cloudy
11:53 AM 41.0 °F 31.6 °F 24.1 °F 51% 30.19 in 10.0 mi West 20.7 mph 24.2 mph N/A   Mostly Cloudy
12:53 PM 42.1 °F 34.5 °F 24.1 °F 49% 30.20 in 10.0 mi WNW 15.0 mph 21.9 mph N/A   Mostly Cloudy
1:53 PM 41.0 °F 31.9 °F 24.1 °F 51% 30.22 in 10.0 mi West 19.6 mph - N/A   Overcast
2:53 PM 44.1 °F 36.2 °F 25.0 °F 47% 30.23 in 10.0 mi West 18.4 mph - N/A   Overcast
3:53 PM 42.1 °F 33.9 °F 24.1 °F 49% 30.25 in 10.0 mi WNW 17.3 mph - N/A   Overcast
4:53 PM 43.0 °F 35.1 °F 24.1 °F 47% 30.27 in 10.0 mi WNW 17.3 mph 23.0 mph N/A   Overcast
5:53 PM 45.0 °F 38.2 °F 23.0 °F 42% 30.29 in 10.0 mi NW 15.0 mph 20.7 mph N/A   Overcast
6:53 PM 42.1 °F 35.2 °F 21.0 °F 43% 30.31 in 10.0 mi NW 12.7 mph - N/A   Mostly Cloudy
7:53 PM 41.0 °F 35.8 °F 21.0 °F 45% 30.32 in 10.0 mi NW 8.1 mph - N/A   Clear
8:53 PM 37.9 °F 32.7 °F 21.0 °F 51% 30.36 in 10.0 mi NW 6.9 mph - N/A   Clear
9:53 PM 36.0 °F 30.3 °F 21.0 °F 55% 30.40 in 10.0 mi NNW 6.9 mph - N/A   Clear
10:53 PM 34.0 °F 28.0 °F 21.0 °F 59% 30.42 in 10.0 mi NNW 6.9 mph - N/A   Clear
11:53 PM 34.0 °F - 19.9 °F 56% 30.44 in 10.0 mi Calm Calm - N/A   Clear